This is the latest recevied weather packets stored in our database for station/object IR1ZYZ-3. If no packets are shown the sender has not sent any weather packets the latest 10 day(s).
| Time | Temp. | Humidity | Pressure | Rain* | Wind** | Luminosity | Snow |
|---|---|---|---|---|---|---|---|
| 1787984028 | 21.67° C | 64% | 1014.7 hPa | - | - | - | - |
| 1787983867 | 21.11° C | 64% | 1014.7 hPa | - | - | - | - |
| 1787983709 | 20.56° C | 63% | 1014.7 hPa | - | - | - | - |
| 1787983174 | 20.56° C | 57% | 1014.7 hPa | - | - | - | - |
| 1787982098 | 20.56° C | 51% | 1014.6 hPa | - | - | - | - |
| 1787981923 | 21.11° C | 51% | 1014.6 hPa | - | - | - | - |
| 1787981794 | 21.67° C | 44% | 1014.5 hPa | - | - | - | - |
| 1787981692 | 22.22° C | 45% | 1014.5 hPa | - | - | - | - |
| 1787981555 | 22.78° C | 43% | 1014.3 hPa | - | - | - | - |
| 1787981409 | 22.22° C | 44% | 1014.2 hPa | - | - | - | - |
| 1787981133 | 22.22° C | 45% | 1014 hPa | - | - | - | - |
| 1787980928 | 22.22° C | 44% | 1014.1 hPa | - | - | - | - |
| 1787980378 | 21.67° C | 50% | 1014.1 hPa | - | - | - | - |
| 1787979941 | 21.67° C | 47% | 1014.1 hPa | - | - | - | - |
| 1787978991 | 22.22° C | 47% | 1013.8 hPa | - | - | - | - |
| 1787976582 | 22.22° C | 55% | 1013.8 hPa | - | - | - | - |
| 1787976157 | 22.22° C | 54% | 1013.8 hPa | - | - | - | - |
| 1787975552 | 21.67° C | 57% | 1013.9 hPa | - | - | - | - |
| 1787974947 | 21.67° C | 63% | 1014 hPa | - | - | - | - |
| 1787974341 | 22.22° C | 62% | 1013.8 hPa | - | - | - | - |
| 1787973737 | 22.22° C | 64% | 1013.7 hPa | - | - | - | - |
| 1787973132 | 22.22° C | 64% | 1013.7 hPa | - | - | - | - |
| 1787972527 | 22.22° C | 68% | 1013.7 hPa | - | - | - | - |
| 1787971922 | 22.22° C | 71% | 1013.6 hPa | - | - | - | - |
| 1787971316 | 22.22° C | 83% | 1013.4 hPa | - | - | - | - |
* Rain since midnight (hover to see other rain measurements)
** Current wind speed in m/s (hover to see current wind gust speed)